Location: Hobi?a Gr?di?te
(45.4833°N, 22.7833°E)
Time: 11:03:58
(UTC+00:00)

Gblst 52 Del rocket - Pass Details

Date: 28 January 2023
Orbit: 805 x 1364 km, 51.5° (Epoch: 20 March)

Event Time Altitude Azimuth Distance (km) Brightness Sun altitude
Rises 18:16:01 0° 242° (WSW) 3,376 8.2 -29.2°
Reaches altitude 10° 18:18:31 10° 243° (WSW) 2,410 7.3 -29.6°
Enters shadow 18:23:06 62° 252° (WSW) 904 4.4 -30.4°
